Location: Helion Bumpstead
(52.0500°N, 0.4000°E)
Time: 13:25:37
(UTC+00:00)

Cosmos 1484 Rocket - Visible Passes

Search period start: 14 February 2026 00:00
Search period end: 24 February 2026 00:00
Orbit: 439 x 467 km, 97.6° (Epoch: 13 February)

Date Brightness Start Highest point End Pass type
(mag) Time Alt. Az. Time Alt. Az. Time Alt. Az.
14 Feb 5.1 05:20:38 10° NE 05:23:30 23° E 05:26:21 10° SSE visible
15 Feb 6.3 04:48:28 10° ENE 04:49:01 10° E 04:49:33 10° E visible
15 Feb 2.4 06:18:46 10° NNE 06:22:17 78° WNW 06:25:47 10° SSW visible
16 Feb 3.9 05:44:42 10° NNE 05:48:03 41° E 05:51:23 10° S visible
16 Feb 5.7 17:54:58 10° SW 17:57:31 19° W 18:00:06 10° NW visible
17 Feb 5.6 05:11:08 10° NE 05:13:38 18° E 05:16:07 10° SE visible
18 Feb 2.6 06:08:55 10° NNE 06:12:26 80° ESE 06:15:56 10° SSW visible
18 Feb 6.3 18:21:01 10° WSW 18:22:04 11° W 18:23:08 10° WNW visible
19 Feb 4.5 05:34:55 10° NNE 05:38:06 31° E 05:41:15 10° SSE visible
20 Feb 5.9 05:01:36 10° NE 05:03:34 14° E 05:05:31 10° SE visible
21 Feb 3.2 05:58:55 10° NNE 06:02:24 59° ESE 06:05:50 10° S visible
21 Feb 6.0 18:09:54 10° SW 18:11:52 14° W 18:13:52 10° NW visible
22 Feb 5.1 05:25:00 10° NE 05:27:55 24° E 05:30:50 10° SSE visible
23 Feb 6.2 04:52:17 10° ENE 04:53:16 11° E 04:54:16 10° ESE visible
